[ ตารางข้อมูล ] [ Min-Max ] [ วันนี้4 ] [ วันนี้2 ] [ เทียบ3วัน A ] [ เทียบ4วัน B ]   

วันนี้2   [ ◀ ช่วงเก่ากว่า ] [ ช่วงที่ 245 ] [ ช่วงใหม่กว่า ▶ ] [ ล่าสุด ]    [ 3 ชั่วโมง ] [ 6 ชั่วโมง ] [ 12 ชั่วโมง ] [ 24 ชั่วโมง ]   วันนี้2

อุณภูมิตู้ Knockdown4529  ราย 3 ชั่วโมง  ที่วัดได้ ในช่วงวันเวลา 06/04/2026 (04:46) ถึง 06/04/2026 (07:46) 
ความชื้นในตู้ Knockdown4529  ราย 3 ชั่วโมง  ที่วัดได้ ในช่วงวันเวลา 06/04/2026 (04:46) ถึง 06/04/2026 (07:46) 

 
DS18B20SHTC3 
IDDate d/m/Y & Timedata1
สูง
data2
ต่ำ
data3
นอก
temp
pcb
hum
pcb
Time
 9269  06/04/2026 07:42:41  27.9  28.1  27.7  28.0  70.0  07:42 
 9268  06/04/2026 07:38:00  27.9  28.0  27.4  27.9  70.1  07:38 
 9267  06/04/2026 07:33:17  27.9  28.0  27.2  27.8  70.1  07:33 
 9266  06/04/2026 07:28:35  27.9  28.0  26.9  27.8  70.2  07:28 
 9265  06/04/2026 07:23:53  27.9  28.0  26.8  27.8  70.1  07:23 
 9264  06/04/2026 07:19:10  27.9  28.0  26.7  27.7  70.1  07:19 
 9263  06/04/2026 07:14:29  27.9  28.0  26.7  27.8  70.3  07:14 
 9262  06/04/2026 07:09:47  27.9  28.1  26.7  27.8  70.3  07:09 
 9261  06/04/2026 07:05:04  27.9  28.1  26.8  27.9  70.3  07:05 
 9260  06/04/2026 07:00:23  27.9  28.1  26.7  27.8  70.3  07:00 
 9259  06/04/2026 06:55:41  27.9  28.1  26.6  27.7  70.2  06:55 
 9258  06/04/2026 06:50:59  27.9  28.1  26.5  27.7  70.4  06:50 
 9257  06/04/2026 06:46:17  27.9  28.1  26.4  27.9  70.2  06:46 
 9256  06/04/2026 06:41:35  27.9  28.1  26.4  27.8  70.3  06:41 
 9255  06/04/2026 06:36:53  27.9  28.1  26.4  27.9  70.2  06:36 
 9254  06/04/2026 06:32:12  27.9  28.1  26.5  27.9  70.3  06:32 
 9253  06/04/2026 06:27:30  28.0  28.2  26.5  27.9  70.3  06:27 
 9252  06/04/2026 06:22:48  28.0  28.2  26.5  27.9  70.3  06:22 
 9251  06/04/2026 06:18:06  28.1  28.2  26.5  28.1  70.3  06:18 
 9250  06/04/2026 06:13:24  28.1  28.2  26.4  27.9  70.3  06:13 
 9249  06/04/2026 06:08:42  28.1  28.2  26.3  28.1  70.3  06:08 
 9248  06/04/2026 06:04:00  28.1  28.2  26.3  28.0  70.2  06:04 
 9247  06/04/2026 05:59:18  28.1  28.2  26.2  28.1  70.2  05:59 
 9246  06/04/2026 05:54:36  28.1  28.2  26.4  28.2  70.2  05:54 

Data every 5 minute.


ใช้เวลาประมวลผล 0.00189 วินาที